Terminal Aerodrome Forecast
Issued by NWS Twin Cities, MN

Home | Current Version | Previous Version | Text Only | Print | Product List | Glossary Off
Versions: 1 2 3 4 5 6 7 8 9 10 11 12 13 14 15 16 17 18 19 20 21

623
FTUS43 KMPX 151747
TAFSTC
TAF
KSTC 151747Z 1518/1618 VRB03KT P6SM OVC020
     FM152100 14005KT 3SM -SN OVC015
     FM160700 09005KT P6SM OVC008=

USA.gov is the U.S. government's official web portal to all federal, state and local government web resources and services.